GW5329 Weather Reports


time (UTC)temp
C
wind
direction
speed
KPH
gust
KPH
rain 1hr
cm
rain 24hr
cm
rain mn
cm
humidity
%
barometer
mb
20260506201154 14 217 4.8 20.9 0.00 0.00 0.10 92 795.2
20260506200137 14 183 1.6 20.9 0.03 0.00 0.10 92 761.8
20260506195636 14 198 4.8 20.9 0.05 0.00 0.10 92 784.0
20260506195135 14 218 4.8 20.9 0.05 0.00 0.10 92 775.3
20260506194634 14 169 1.6 20.9 0.05 0.00 0.10 92 740.3
20260506194133 14 199 1.6 20.9 0.05 0.00 0.10 92 783.8
20260506193632 14 207 6.4 20.9 0.05 0.00 0.10 91 787.0
20260506193131 14 200 4.8 17.7 0.08 0.00 0.10 91 781.4
20260506192630 14 209 3.2 17.7 0.10 0.00 0.10 92 779.1
20260506192129 14 215 1.6 17.7 0.10 0.00 0.10 92 777.9
20260506191628 14 214 3.2 17.7 0.10 0.00 0.10 92 779.8
20260506191127 15 206 8.0 17.7 0.10 0.00 0.10 91 751.6
20260506190626 15 207 4.8 17.7 0.08 0.00 0.08 91 784.4
20260506185609 15 210 0.0 17.7 0.08 0.00 0.08 91 790.3
20260506185108 15 213 3.2 17.7 0.05 0.00 0.05 90 797.3
20260506184607 15 220 1.6 17.7 0.05 0.00 0.05 90 792.1
20260506184106 15 214 3.2 17.7 0.05 0.00 0.05 89 780.3
20260506183606 15 191 0.0 17.7 0.05 0.00 0.05 89 766.8
20260506182551 16 215 0.0 17.7 0.03 0.00 0.03 89 794.5
20260506182050 16 216 1.6 17.7 0.00 0.00 0.00 87 792.2
20260506181549 16 216 3.2 17.7 0.00 0.00 0.00 86 785.3
20260506181049 16 216 1.6 17.7 0.00 0.00 0.00 86 772.1
20260506180548 16 203 1.6 17.7 0.00 0.00 0.00 85 741.9
20260506180047 16 194 0.0 17.7 0.00 0.00 0.00 84 732.8
20260506175031 17 193 0.0 17.7 0.00 0.00 0.00 82 727.5
20260506174015 17 199 0.0 17.7 0.00 0.00 0.00 78 763.4
20260506173514 18 210 3.2 17.7 0.00 0.00 0.00 75 785.5
20260506173013 18 208 0.0 17.7 0.00 0.00 0.00 75 791.1
20260506171440 19 281 8.0 20.9 0.00 0.00 0.00 65 845.1
20260506170939 20 223 6.4 17.7 0.00 0.00 0.00 64 819.9
20260506170438 20 221 8.0 19.3 0.00 0.00 0.00 63 816.8
20260506165937 20 208 6.4 19.3 0.00 0.00 0.00 62 821.1
20260506164920 20 224 3.2 22.5 0.00 0.00 0.00 62 827.5
20260506164419 20 222 3.2 19.3 0.00 0.00 0.00 62 815.3
20260506163918 20 208 6.4 19.3 0.00 0.00 0.00 61 784.5
20260506163417 20 207 8.0 19.3 0.00 0.00 0.00 61 785.6
20260506162916 20 188 8.0 19.3 0.00 0.00 0.00 61 798.9
20260506161859 20 201 9.7 22.5 0.00 0.00 0.00 60 786.3
20260506160326 21 213 3.2 19.3 0.00 0.00 0.00 60 792.5
20260506155309 21 194 8.0 29.0 0.00 0.00 0.00 59 802.0
20260506154808 21 221 4.8 19.3 0.00 0.00 0.00 60 858.0
20260506154307 21 245 3.2 22.5 0.00 0.00 0.00 60 808.6
20260506153806 21 190 8.0 22.5 0.00 0.00 0.00 58 762.1
20260506153305 21 207 0.0 22.5 0.00 0.00 0.00 59 778.8
20260506152804 21 224 4.8 22.5 0.00 0.00 0.00 60 792.8
20260506151747 21 228 1.6 17.7 0.00 0.00 0.00 61 818.8
20260506151246 20 230 4.8 17.7 0.00 0.00 0.00 62 868.5
20260506150745 20 220 4.8 17.7 0.00 0.00 0.00 62 783.3
20260506150244 20 193 4.8 17.7 0.00 0.00 0.00 62 792.4
20260506145743 20 236 4.8 17.7 0.00 0.00 0.00 62 823.8
20260506145242 20 225 4.8 17.7 0.00 0.00 0.00 63 809.8
20260506144741 20 232 4.8 17.7 0.00 0.00 0.00 64 796.3
20260506144240 20 198 4.8 17.7 0.00 0.00 0.00 64 765.9
20260506143223 19 145 4.8 24.1 0.00 0.00 0.00 66 741.4
20260506142722 19 208 3.2 24.1 0.00 0.00 0.00 67 830.5
20260506142221 19 232 6.4 17.7 0.00 0.00 0.00 67 867.3
20260506141720 19 271 0.0 17.7 0.00 0.00 0.00 67 907.9
20260506141219 19 290 0.0 17.7 0.00 0.00 0.00 67 833.2
20260506140718 19 167 1.6 17.7 0.00 0.00 0.00 68 728.3
20260506140217 18 202 4.8 17.7 0.00 0.00 0.00 69 758.6
20260506135716 18 186 4.8 17.7 0.00 0.00 0.00 69 794.4
20260506135215 18 260 3.2 17.7 0.00 0.00 0.00 68 837.9
20260506134158 18 210 4.8 19.3 0.00 0.00 0.00 70 782.1
20260506133141 18 220 1.6 17.7 0.00 0.00 0.00 72 804.2
20260506132640 18 245 4.8 19.3 0.00 0.00 0.00 73 790.2
20260506132139 17 215 6.4 19.3 0.00 0.00 0.00 73 775.5
20260506131122 17 196 4.8 17.7 0.00 0.00 0.00 75 766.1
20260506130621 17 213 6.4 20.9 0.00 0.00 0.00 75 768.3
20260506130120 17 187 1.6 20.9 0.00 0.00 0.00 77 808.7
20260506125619 17 240 3.2 20.9 0.00 0.00 0.00 78 825.0
20260506125119 16 201 4.8 20.9 0.00 0.00 0.00 78 787.3
20260506124617 16 219 1.6 20.9 0.00 0.00 0.00 80 789.9
20260506124116 16 209 1.6 20.9 0.00 0.00 0.00 80 789.7
20260506123615 16 202 3.2 20.9 0.00 0.00 0.00 80 788.7
20260506122044 16 256 3.2 20.9 0.00 0.00 0.00 80 820.5
20260506121543 16 217 0.0 20.9 0.00 0.00 0.00 81 776.9
20260506121042 15 205 1.6 20.9 0.00 0.00 0.00 81 759.5
20260506120541 15 210 4.8 20.9 0.00 0.00 0.00 81 759.1
20260506120040 15 172 3.2 20.9 0.00 0.00 0.00 81 728.0
20260506115540 15 208 3.2 20.9 0.00 0.00 0.00 81 757.5
20260506114523 15 213 1.6 20.9 0.00 0.00 0.00 83 703.1
20260506114023 15 150 0.0 20.9 0.00 0.00 0.00 84 673.6
20260506113522 15 167 3.2 20.9 0.00 0.00 0.00 84 742.2
20260506113021 15 205 3.2 20.9 0.00 0.00 0.00 85 767.4
20260506112520 14 205 1.6 20.9 0.00 0.00 0.00 86 783.8
20260506111504 14 208 1.6 20.9 0.00 0.00 0.00 85 800.3
20260506111004 14 214 1.6 20.9 0.00 0.00 0.00 85 786.9
20260506105947 14 230 3.2 20.9 0.00 0.00 0.00 86 799.2
20260506104930 13 243 1.6 20.9 0.00 0.00 0.00 86 851.4
20260506104429 13 228 1.6 20.9 0.00 0.00 0.00 86 845.5
20260506103929 13 243 0.0 20.9 0.00 0.00 0.00 86 860.5
20260506103428 13 245 1.6 20.9 0.00 0.00 0.00 86 853.9
20260506102927 13 227 3.2 20.9 0.00 0.00 0.00 86 872.3
20260506102426 13 272 1.6 20.9 0.00 0.00 0.00 86 866.9
20260506101925 13 225 3.2 20.9 0.00 0.00 0.00 86 805.8
20260506101424 13 216 4.8 20.9 0.00 0.00 0.00 86 780.2
20260506100407 13 202 1.6 20.9 0.00 0.00 0.00 86 776.5
20260506095906 13 212 1.6 20.9 0.00 0.00 0.00 86 782.7
20260506095405 13 207 0.0 20.9 0.00 0.00 0.00 85 774.8
20260506094904 13 208 3.2 20.9 0.00 0.00 0.00 85 764.4
20260506094403 13 224 1.6 20.9 0.00 0.00 0.00 85 773.9
20260506093902 13 183 3.2 20.9 0.00 0.00 0.00 85 727.5
20260506093401 13 173 1.6 20.9 0.00 0.00 0.00 85 759.8
20260506092900 13 244 0.0 20.9 0.00 0.00 0.00 84 848.7
20260506092359 13 224 4.8 20.9 0.00 0.00 0.00 84 804.9
20260506091858 14 201 4.8 20.9 0.00 0.00 0.00 84 781.0
20260506091357 14 214 3.2 20.9 0.00 0.00 0.00 84 788.8
20260506090857 14 213 3.2 20.9 0.00 0.00 0.00 84 776.7
20260506090356 14 210 1.6 17.7 0.00 0.00 0.00 83 803.0
20260506085856 14 220 4.8 17.7 0.00 0.00 0.00 83 827.7
20260506085355 14 225 1.6 17.7 0.00 0.00 0.00 83 824.1
20260506084854 14 232 1.6 17.7 0.00 0.00 0.00 82 810.5
20260506084353 14 206 1.6 17.7 0.00 0.00 0.00 82 783.9
20260506083852 14 203 3.2 17.7 0.00 0.00 0.00 82 777.9
20260506083351 14 229 1.6 17.7 0.00 0.00 0.00 82 803.3
20260506082850 14 222 4.8 17.7 0.00 0.00 0.00 82 788.5
20260506082349 14 207 3.2 17.7 0.00 0.00 0.00 82 779.9
20260506081848 14 205 1.6 17.7 0.00 0.00 0.00 82 769.1
20260506081347 14 182 3.2 17.7 0.00 0.00 0.00 81 776.5
20260506080846 14 218 1.6 17.7 0.00 0.00 0.00 81 796.2
20260506080345 14 214 3.2 17.7 0.00 0.00 0.00 81 789.7
20260506073326 15 201 3.2 17.7 0.00 0.00 0.00 80 794.7
20260506072825 15 251 3.2 17.7 0.00 0.00 0.00 80 814.7
20260506072324 15 205 1.6 17.7 0.00 0.00 0.00 80 789.9
20260506071307 15 222 0.0 17.7 0.00 0.00 0.00 79 768.2
20260506070806 15 212 4.8 17.7 0.00 0.00 0.00 79 789.1
20260506070305 15 217 4.8 17.7 0.00 0.00 0.00 79 800.9
20260506062212 15 204 4.8 17.7 0.00 0.00 0.00 77 769.1
20260506061711 15 190 1.6 17.7 0.00 0.00 0.00 77 773.1
20260506061210 15 217 3.2 17.7 0.00 0.00 0.00 76 792.3
20260506060709 15 214 4.8 17.7 0.00 0.00 0.00 76 781.7
20260506060208 15 224 1.6 17.7 0.00 0.00 0.00 76 790.2
20260506051158 16 222 4.8 19.3 0.00 0.00 0.00 72 807.8
20260506050141 16 212 3.2 17.7 0.00 0.00 0.00 71 801.2
20260506044638 16 213 4.8 17.7 0.00 0.00 0.00 70 778.3
20260506044137 16 215 4.8 17.7 0.00 0.00 0.00 69 771.2
20260506043636 16 187 1.6 17.7 0.00 0.00 0.00 69 755.0
20260506043135 16 203 1.6 17.7 0.00 0.00 0.00 69 755.7
20260506042634 16 191 3.2 17.7 0.00 0.00 0.00 68 769.7
20260506042133 16 223 3.2 17.7 0.00 0.00 0.00 68 794.8
20260506041116 16 239 3.2 19.3 0.00 0.00 0.00 67 803.9
20260506040615 16 214 3.2 19.3 0.00 0.00 0.00 67 782.5
20260506040114 16 183 3.2 19.3 0.00 0.00 0.00 67 777.6
20260506035613 16 213 3.2 17.7 0.00 0.00 0.00 67 816.4
20260506035112 16 235 4.8 17.7 0.00 0.00 0.00 67 798.4
20260506034055 16 225 3.2 24.1 0.00 0.00 0.00 67 793.4
20260506033554 16 175 3.2 19.3 0.00 0.00 0.00 67 770.7
20260506033053 16 204 4.8 19.3 0.00 0.00 0.00 67 785.0
20260506032552 16 216 3.2 19.3 0.00 0.00 0.00 67 785.9
20260506032051 16 205 3.2 19.3 0.00 0.00 0.00 67 765.9
20260506031551 16 202 1.6 19.3 0.00 0.00 0.00 67 764.8
20260506031050 16 193 4.8 19.3 0.00 0.00 0.00 67 782.3
20260506030033 16 235 4.8 20.9 0.00 0.00 0.00 67 817.8
20260506025533 16 195 3.2 19.3 0.00 0.00 0.00 67 773.5
20260506025031 16 218 3.2 19.3 0.00 0.00 0.00 67 798.3
20260506024530 16 213 4.8 19.3 0.00 0.00 0.00 67 806.3
20260506024029 16 201 3.2 19.3 0.00 0.00 0.00 67 811.3
20260506023528 16 240 1.6 19.3 0.00 0.00 0.00 67 811.6
20260506023027 16 235 3.2 19.3 0.00 0.00 0.00 67 800.1
20260506022011 16 194 1.6 19.3 0.00 0.00 0.00 66 756.4
20260506021510 16 182 1.6 19.3 0.00 0.00 0.00 66 714.2
20260506021010 16 162 3.2 19.3 0.00 0.00 0.00 66 726.1
20260506015954 16 187 1.6 19.3 0.00 0.00 0.00 65 748.1
20260506014938 16 218 1.6 17.7 0.00 0.00 0.00 65 820.9
20260506013921 16 216 4.8 17.7 0.00 0.00 0.00 64 800.9
20260506013420 16 206 3.2 17.7 0.00 0.00 0.00 63 820.3
20260506012403 17 257 1.6 17.7 0.00 0.00 0.00 62 863.6
20260506011901 17 220 3.2 17.7 0.00 0.00 0.00 62 839.7
20260506011401 17 230 6.4 24.1 0.00 0.00 0.00 62 851.6
20260506010859 17 220 4.8 24.1 0.00 0.00 0.00 61 805.3
20260506010359 17 219 4.8 24.1 0.00 0.00 0.00 61 801.5
20260506005858 17 232 4.8 24.1 0.00 0.00 0.00 61 803.9
20260506005357 17 182 1.6 24.1 0.00 0.00 0.00 61 778.5
20260506004857 17 225 4.8 24.1 0.00 0.00 0.00 61 817.6
20260506004356 17 242 4.8 24.1 0.00 0.00 0.00 60 837.7
20260506003340 17 237 4.8 24.1 0.00 0.00 0.00 60 823.4
20260506002323 18 227 3.2 24.1 0.00 0.00 0.00 60 807.3
20260506001307 18 198 3.2 24.1 0.00 0.00 0.00 59 784.7
20260506000806 18 212 3.2 24.1 0.00 0.00 0.00 59 785.5
20260506000305 18 209 3.2 24.1 0.00 0.00 0.00 58 778.9
20260505235804 18 210 3.2 24.1 0.00 0.00 0.00 57 784.8
20260505234748 19 209 3.2 24.1 0.00 0.00 0.00 56 785.1
20260505234247 19 223 4.8 24.1 0.00 0.00 0.00 56 792.0
20260505233746 19 206 4.8 24.1 0.00 0.00 0.00 55 780.2
20260505233245 20 220 3.2 24.1 0.00 0.00 0.00 55 808.5
20260505232744 20 188 4.8 19.3 0.00 0.00 0.00 54 796.0
20260505232243 20 212 3.2 19.3 0.00 0.00 0.00 53 806.1
20260505231742 20 251 4.8 19.3 0.00 0.00 0.00 53 834.3
20260505231241 20 229 4.8 19.3 0.00 0.00 0.00 52 825.6
20260505230740 20 187 4.8 19.3 0.00 0.00 0.00 52 794.0
20260505230239 20 220 3.2 19.3 0.00 0.00 0.00 51 808.1
20260505225222 21 201 4.8 20.9 0.00 0.00 0.00 50 766.2
20260505224721 21 212 3.2 22.5 0.00 0.00 0.00 51 785.0
20260505224220 21 235 3.2 22.5 0.00 0.00 0.00 50 817.3
20260505223719 21 206 4.8 17.7 0.00 0.00 0.00 49 809.9
20260505223218 21 213 3.2 17.7 0.00 0.00 0.00 49 810.6
20260505222717 21 229 3.2 17.7 0.00 0.00 0.00 48 805.2
20260505222216 22 204 6.4 20.9 0.00 0.00 0.00 48 775.2
20260505221159 22 233 3.2 17.7 0.00 0.00 0.00 47 793.3
20260505220658 22 202 4.8 22.5 0.00 0.00 0.00 46 788.8
20260505220157 22 234 6.4 22.5 0.00 0.00 0.00 46 838.3
20260505215140 22 231 3.2 19.3 0.00 0.00 0.00 47 809.0
20260505214123 22 224 4.8 30.6 0.00 0.00 0.00 46 772.4
20260505213108 23 225 4.8 17.7 0.00 0.00 0.00 46 773.6
20260505212607 23 221 4.8 19.3 0.00 0.00 0.00 45 764.8
20260505212106 23 188 3.2 19.3 0.00 0.00 0.00 45 763.3
20260505211605 23 192 6.4 20.9 0.00 0.00 0.00 45 781.4
20260505211104 23 231 6.4 20.9 0.00 0.00 0.00 44 800.8
20260505210603 24 224 4.8 17.7 0.00 0.00 0.00 43 788.9
20260505205030 25 222 4.8 20.9 0.00 0.00 0.00 42 743.9
20260505204529 25 165 1.6 17.7 0.00 0.00 0.00 43 725.5
20260505204028 25 220 4.8 20.9 0.00 0.00 0.00 42 799.2
20260505203527 25 204 6.4 20.9 0.00 0.00 0.00 43 790.5
20260505203026 25 196 6.4 29.0 0.00 0.00 0.00 42 790.2
20260505202525 25 241 6.4 29.0 0.00 0.00 0.00 41 827.8